Tracking 28565 objects as of 3-Mar-2024
HD Live streaming from Space Station
objects crossing your sky now

STARLINK-5177

Track STARLINK-5177 now!
10-day predictions
STARLINK-5177 is classified as:


NORAD ID: 54090
Int'l Code: 2022-136AR
Perigee: 545.9 km
Apogee: 547.8 km
Inclination: 53.2 °
Period: 95.4 minutes
Semi major axis: 6917 km
RCS: Unknown
Launch date: October 20, 2022
Source: United States (US)
Launch site: AIR FORCE EASTERN TEST RANGE (AFETR)
Your satellite tracking list
Your tracking list is empty




NASA's NSSDC Master Catalog

Two Line Element Set (TLE):
1 54090U 22136AR  24063.22122033 -.00000359  00000-0 -44467-5 0  9991
2 54090  53.2182  40.1658 0001357  90.0385 270.0763 15.08840831 76271
Source of the keplerian elements: AFSPC